Location: Unspecified
(41.5000°N, 0.0000°E)
Time: 06:59:02
(UTC+00:00)

deb Explorer IX - Pass Details

Date: 22 June 2019
Orbit: 539 x 1112 km, 38.8° (Epoch: 17 July)

Event Time Altitude Azimuth Distance (km) Brightness Sun altitude
Rises 18:39:05 0° 279° (W) 3,922 ? 8.8°
Reaches altitude 10° 18:42:09 10° 272° (W) 2,932 ? 8.3°
Maximum altitude 18:48:33 35° 209° (SSW) 1,580 ? 7.2°
Drops below altitude 10° 18:54:22 10° 146° (SE) 2,652 ? 6.2°
Sets 18:57:01 0° 137° (SE) 3,505 ? 5.8°
